Hourly Weather Cacheu

Today, 4 July, Saturday

Time Temperature Precipitation Wind Pressure Humidity
00:00 +28°C° 0 mm 2 mps 758 mmHg 86%
01:00 +28°C° 0 mm 2 mps 758 mmHg 87%
02:00 +28°C° 0 mm 2 mps 758 mmHg 88%
03:00 +28°C° 0 mm 2 mps 758 mmHg 89%
04:00 +27°C° 0 mm 2 mps 757 mmHg 90%
05:00 +27°C° 0 mm 2 mps 757 mmHg 92%
06:00 +28°C° 0 mm 3 mps 757 mmHg 87%
07:00 +29°C° 0 mm 3 mps 757 mmHg 83%
08:00 +30°C° 0 mm 3 mps 758 mmHg 79%
09:00 +31°C° 0 mm 3 mps 758 mmHg 72%
10:00 +33°C° 0 mm 3 mps 758 mmHg 66%
11:00 +34°C° 0 mm 3 mps 758 mmHg 59%
12:00 +35°C° 0 mm 3 mps 758 mmHg 57%
13:00 +36°C° 0 mm 4 mps 757 mmHg 56%
14:00 +36°C° 0 mm 4 mps 756 mmHg 54%
15:00 +35°C° 0 mm 5 mps 756 mmHg 57%
16:00 +34°C° 0 mm 5 mps 756 mmHg 60%
17:00 +33°C° 0 mm 5 mps 755 mmHg 64%
18:00 +32°C° 0 mm 4 mps 756 mmHg 68%
19:00 +30°C° 0 mm 4 mps 757 mmHg 73%
20:00 +29°C° 0 mm 3 mps 757 mmHg 78%
21:00 +29°C° 0 mm 3 mps 757 mmHg 79%
22:00 +29°C° 0 mm 3 mps 758 mmHg 81%
23:00 +28°C° 0 mm 3 mps 758 mmHg 83%

Tomorrow, 5 July, Sunday

Time Temperature Precipitation Wind Pressure Humidity
00:00 +28°C° 0 mm 3 mps 758 mmHg 83%
01:00 +28°C° 0 mm 3 mps 757 mmHg 84%
02:00 +28°C° 0 mm 3 mps 757 mmHg 85%
03:00 +28°C° 0 mm 3 mps 757 mmHg 83%
04:00 +28°C° 0 mm 3 mps 756 mmHg 82%
05:00 +28°C° 0 mm 3 mps 756 mmHg 81%
06:00 +29°C° 0 mm 3 mps 756 mmHg 77%
07:00 +30°C° 0 mm 4 mps 757 mmHg 73%
08:00 +32°C° 0 mm 4 mps 757 mmHg 70%
09:00 +33°C° 0 mm 4 mps 757 mmHg 66%
10:00 +34°C° 0 mm 4 mps 757 mmHg 62%
11:00 +35°C° 0 mm 5 mps 757 mmHg 58%
12:00 +35°C° 0 mm 5 mps 757 mmHg 58%
13:00 +35°C° 0 mm 5 mps 757 mmHg 57%
14:00 +35°C° 0 mm 5 mps 756 mmHg 56%
15:00 +34°C° 0 mm 5 mps 756 mmHg 59%
16:00 +34°C° 0 mm 5 mps 756 mmHg 61%
17:00 +33°C° 0 mm 5 mps 756 mmHg 64%
18:00 +32°C° 0 mm 4 mps 756 mmHg 68%
19:00 +30°C° 0 mm 4 mps 757 mmHg 72%
20:00 +29°C° 0 mm 3 mps 757 mmHg 75%
21:00 +29°C° 0 mm 3 mps 757 mmHg 77%
22:00 +29°C° 0 mm 3 mps 757 mmHg 79%
23:00 +29°C° 0 mm 2 mps 757 mmHg 80%

Day after tomorrow, 6 July, Monday

Time Temperature Precipitation Wind Pressure Humidity
00:00 +28°C° 0 mm 2 mps 757 mmHg 82%
01:00 +28°C° 0 mm 2 mps 757 mmHg 83%
02:00 +28°C° 0 mm 2 mps 757 mmHg 85%
03:00 +28°C° 0 mm 2 mps 757 mmHg 86%
04:00 +28°C° 0 mm 2 mps 756 mmHg 86%
05:00 +27°C° 0 mm 2 mps 756 mmHg 87%
06:00 +28°C° 0 mm 2 mps 757 mmHg 82%
07:00 +29°C° 0 mm 2 mps 757 mmHg 78%
08:00 +30°C° 0 mm 2 mps 758 mmHg 73%
09:00 +33°C° 0 mm 3 mps 758 mmHg 67%
10:00 +34°C° 0 mm 3 mps 758 mmHg 61%
11:00 +35°C° 0 mm 3 mps 758 mmHg 56%
12:00 +35°C° 0.7 mm 4 mps 757 mmHg 56%
13:00 +35°C° 0.7 mm 4 mps 757 mmHg 57%
14:00 +35°C° 0.7 mm 4 mps 756 mmHg 58%
15:00 +34°C° 0.7 mm 3 mps 756 mmHg 62%
16:00 +33°C° 0.7 mm 3 mps 756 mmHg 65%
17:00 +31°C° 0.7 mm 3 mps 756 mmHg 69%
18:00 +30°C° 0.1 mm 3 mps 756 mmHg 72%
19:00 +30°C° 0.1 mm 2 mps 757 mmHg 74%
20:00 +29°C° 0.1 mm 2 mps 757 mmHg 77%
21:00 +29°C° 0 mm 2 mps 757 mmHg 79%
22:00 +29°C° 0 mm 2 mps 757 mmHg 80%
23:00 +29°C° 0 mm 2 mps 757 mmHg 82%

7 July, Tuesday

Time Temperature Precipitation Wind Pressure Humidity
00:00 +28°C° 0 mm 2 mps 757 mmHg 83%
01:00 +28°C° 0 mm 1 mps 757 mmHg 84%
02:00 +28°C° 0 mm 1 mps 757 mmHg 85%
03:00 +28°C° 1.3 mm 1 mps 757 mmHg 86%
04:00 +28°C° 1.3 mm 1 mps 757 mmHg 87%
05:00 +27°C° 1.3 mm 1 mps 757 mmHg 89%
06:00 +28°C° 2.7 mm 2 mps 757 mmHg 87%
07:00 +28°C° 2.7 mm 2 mps 757 mmHg 85%
08:00 +28°C° 2.7 mm 2 mps 758 mmHg 83%
09:00 +29°C° 0.6 mm 2 mps 758 mmHg 80%
10:00 +30°C° 0.6 mm 1 mps 758 mmHg 76%
11:00 +30°C° 0.6 mm 1 mps 758 mmHg 72%
12:00 +31°C° 0.1 mm 2 mps 757 mmHg 68%
13:00 +32°C° 0.1 mm 2 mps 757 mmHg 64%
14:00 +34°C° 0.1 mm 2 mps 756 mmHg 60%
15:00 +32°C° 1.2 mm 2 mps 756 mmHg 65%
16:00 +31°C° 1.2 mm 3 mps 756 mmHg 70%
17:00 +30°C° 1.2 mm 3 mps 756 mmHg 76%
18:00 +29°C° 0 mm 3 mps 756 mmHg 79%
19:00 +29°C° 0 mm 2 mps 757 mmHg 82%
20:00 +28°C° 0 mm 2 mps 758 mmHg 85%
21:00 +28°C° 0 mm 2 mps 758 mmHg 85%
22:00 +28°C° 0 mm 1 mps 758 mmHg 86%
23:00 +27°C° 0 mm 1 mps 758 mmHg 87%

8 July, Wednesday

Time Temperature Precipitation Wind Pressure Humidity
00:00 +27°C° 0.1 mm 1 mps 758 mmHg 87%
01:00 +27°C° 0.1 mm 1 mps 757 mmHg 88%
02:00 +27°C° 0.1 mm 1 mps 757 mmHg 88%
03:00 +27°C° 0.1 mm 1 mps 757 mmHg 89%
04:00 +27°C° 0.1 mm 1 mps 757 mmHg 90%
05:00 +27°C° 0.1 mm 1 mps 757 mmHg 91%
06:00 +28°C° 0 mm 1 mps 757 mmHg 87%
07:00 +28°C° 0 mm 2 mps 757 mmHg 83%
08:00 +29°C° 0 mm 2 mps 757 mmHg 79%
09:00 +31°C° 0 mm 2 mps 757 mmHg 72%
10:00 +32°C° 0 mm 2 mps 757 mmHg 65%
11:00 +35°C° 0 mm 2 mps 757 mmHg 58%
12:00 +35°C° 0 mm 2 mps 757 mmHg 57%
13:00 +36°C° 0 mm 2 mps 756 mmHg 55%
14:00 +36°C° 0 mm 2 mps 756 mmHg 54%
15:00 +35°C° 0 mm 3 mps 755 mmHg 58%
16:00 +34°C° 0 mm 4 mps 755 mmHg 61%
17:00 +34°C° 0 mm 5 mps 755 mmHg 65%
18:00 +32°C° 0 mm 4 mps 755 mmHg 69%
19:00 +30°C° 0 mm 4 mps 756 mmHg 73%
20:00 +29°C° 0 mm 4 mps 756 mmHg 77%
21:00 +29°C° 0.1 mm 3 mps 756 mmHg 79%
22:00 +29°C° 0.1 mm 3 mps 757 mmHg 82%
23:00 +28°C° 0.1 mm 2 mps 757 mmHg 84%

9 July, Thursday

Time Temperature Precipitation Wind Pressure Humidity
00:00 +28°C° 0 mm 2 mps 757 mmHg 85%
01:00 +28°C° 0 mm 2 mps 757 mmHg 86%
02:00 +28°C° 0 mm 2 mps 756 mmHg 87%
03:00 +27°C° 0 mm 2 mps 756 mmHg 88%
04:00 +27°C° 0 mm 2 mps 756 mmHg 89%
05:00 +27°C° 0 mm 2 mps 756 mmHg 89%
06:00 +28°C° 0 mm 3 mps 757 mmHg 85%
07:00 +29°C° 0 mm 3 mps 757 mmHg 80%
08:00 +30°C° 0 mm 4 mps 757 mmHg 76%
09:00 +33°C° 0 mm 4 mps 757 mmHg 69%
10:00 +34°C° 0 mm 4 mps 757 mmHg 62%
11:00 +35°C° 0 mm 4 mps 757 mmHg 54%
12:00 +36°C° 0 mm 5 mps 757 mmHg 53%
13:00 +36°C° 0 mm 5 mps 756 mmHg 52%
14:00 +36°C° 0 mm 5 mps 756 mmHg 51%
15:00 +35°C° 0 mm 5 mps 756 mmHg 54%
16:00 +34°C° 0 mm 5 mps 755 mmHg 58%
17:00 +34°C° 0 mm 5 mps 755 mmHg 61%
18:00 +32°C° 0 mm 4 mps 756 mmHg 67%
19:00 +30°C° 0 mm 4 mps 756 mmHg 74%
20:00 +29°C° 0 mm 4 mps 756 mmHg 80%
21:00 +29°C° 0 mm 3 mps 757 mmHg 81%
22:00 +29°C° 0 mm 3 mps 757 mmHg 83%
23:00 +29°C° 0 mm 3 mps 758 mmHg 84%
Show more